Regional Weather Roundup
Issued by NWS

Home | Current Version | Previous Version | Graphics & Text | Print | Product List | Glossary Off
Versions: 1 2 3 4 5 6 7 8 9 10 11 12 13 14 15 16 17 18 19 20 21 22 23 24 25 26 27 28 29 30 31 32 33 34 35 36 37 38 39 40 41 42 43 44 45 46 47 48 49 50

000
ASUS43 KLMK 300710
RWRKY
KENTUCKY REGIONAL WEATHER ROUNDUP
NATIONAL WEATHER SERVICE LOUISVILLE KY
300 AM EDT SAT APR 30 2016

NOTE "FAIR" INDICATES FEW OR NO CLOUDS BELOW 12,000 FEET
WITH NO SIGNIFICANT WEATHER AND/OR OBSTRUCTIONS TO VISIBILITY.

KYZ001>023-026-027-061>063-070>075-300800-
WESTERN AND SOUTH CENTRAL KENTUCKY

CITY           SKY/WX    TMP DP  RH WIND       PRES   REMARKS
PADUCAH        CLOUDY    63  58  83 E8        29.89F
HENDERSON      CLOUDY    61  54  77 E8        29.91F
OWENSBORO      CLOUDY    62  55  77 E10       29.93F
HOPKINSVILLE   CLOUDY    62  60  92 NE6       29.91F
BOWLING GREEN  CLOUDY    65  56  72 E6        29.93F
GLASGOW        MOCLDY    63  52  69 E7        29.94S
$$

KYZ024-025-028>034-038-045-046-053-300800-
NORTH CENTRAL KENTUCKY

CITY           SKY/WX    TMP DP  RH WIND       PRES   REMARKS
LOUISVILLE/SDF LGT RAIN  63  49  60 E14       29.97F
LOUISVILLE/LOU CLOUDY    63  49  60 E8        29.98F
FORT KNOX      LGT RAIN  59  54  82 NE9       29.95S
$$

KYZ035>037-039>044-047>052-055>060-089>105-300800-
NORTHEAST KENTUCKY

CITY           SKY/WX    TMP DP  RH WIND       PRES   REMARKS
LEXINGTON      LGT RAIN  59  53  80 E10       30.01F
COVINGTON      CLOUDY    54  48  80 E16       30.03R
FRANKFORT      CLOUDY    60  51  72 NE10      30.00F
$$

KYZ054-064>069-076>088-106>120-300800-
SOUTHEAST KENTUCKY

CITY           SKY/WX    TMP DP  RH WIND       PRES   REMARKS
JACKSON        CLOUDY    59  51  75 VRB3      30.02S
LONDON         CLOUDY    63  50  62 VRB5      29.99F
SOMERSET       CLOUDY    61  50  67 E3        29.98F
MIDDLESBORO    MOCLDY    60  56  84 CALM      30.00F
MONTICELLO     CLOUDY    62  54  74 NW6       29.98F
$$




USA.gov is the U.S. government's official web portal to all federal, state and local government web resources and services.